Weather observations for the past three days for
Tupelo, Tupelo Regional Airport
Imperial (Metric)
Date Time (cdt) Wind (mph) Vis. (mi.) Weather Sky Cond. Temperature (ºF) Relative Humidity Wind Chill (°F) Heat Index (°F) Pressure Precipitation (in)
Air Dwpt 6 hour altimeter (in) sea level (mb) 1 hr 3 hr 6 hr
Max. Min.
20 20:53 Calm 10.00 Fair CLR 82 73 74% 87 30.01 1015.6
20 19:53 Calm 10.00 A Few Clouds FEW100 84.9 73 68% 92 29.99 1015.1
20 18:53 W 3 10.00 Fair CLR 87.1 73 89.1 82.9 63% 95 30 1015.3
20 17:53 Vrbl 6 10.00 A Few Clouds FEW036 88 73 61% 96 29.98 1014.8
20 16:53 Vrbl 3 10.00 Fair CLR 84.9 72 65% 91 30 1015.4
20 15:53 Vrbl 3 10.00 A Few Clouds FEW095 88 72 59% 95 30.02 1016.0
20 14:53 Calm 10.00 A Few Clouds FEW032 87.1 72 61% 94 30.02 1016.2
20 12:53 Calm 10.00 Partly Cloudy SCT021 84 72 84 73 67% 90 30.04 1016.9
20 11:53 W 7 10.00 Overcast OVC024 81 72 74% 85 30.06 1017.3
20 10:53 Calm 10.00 Overcast OVC015 78.1 71.1 79% 80 30.08 1018.0
20 09:53 Calm 10.00 Overcast OVC010 77 71.1 82% 79 30.07 1017.8
20 08:53 S 7 10.00 Overcast OVC010 75 71.1 88% 75 30.06 1017.3
20 07:53 SE 3 10.00 Overcast OVC007 73.9 71.1 91% 30.05 1017.2
20 06:53 S 5 10.00 Overcast OVC007 73 70 77 73 90% 30.04 1016.9 0.01
20 05:53 S 7 10.00 Overcast OVC011 73 71.1 94% 30.02 1016.2
20 04:53 S 6 10.00 Overcast FEW007 OVC012 75 72 90% 74 30.01 1015.9
20 03:53 S 5 10.00 Overcast OVC006 75 73 94% 73 30 1015.5 0.01
20 02:53 Calm 10.00 Mostly Cloudy BKN007 BKN013 75.9 73 91% 76 30.01 1015.7
20 01:53 SE 7 10.00 Light Rain SCT021 BKN033 OVC080 77 73 88% 78 30.01 1015.7 0.01
20 00:53 E 5 10.00 Partly Cloudy FEW020 SCT036 SCT060 77 72 81 73.9 85% 78 30.02 1016.1 0.03
19 23:53 NE 3 10.00 Overcast FEW021 BKN049 OVC060 75 72 90% 74 30.03 1016.6
19 22:53 E 5 10.00 Mostly Cloudy BKN036 BKN080 78.1 73 85% 81 30.03 1016.4 0.01
19 21:53 Calm 10.00 Overcast BKN039 OVC075 78.1 75 90% 81 30.03 1016.5 0.02
19 20:53 Calm 5.00 Light Rain FEW050 OVC075 79 73 82% 82 30.02 1016.1 0.02
19 19:53 NE 5 10.00 Partly Cloudy SCT044 80.1 72 76% 84 30.01 1015.6
19 18:53 N 8 10.00 A Few Clouds FEW024 81 72 84 75.9 74% 85 30 1015.4
19 17:53 N 5 10.00 Mostly Cloudy FEW026 SCT035 BKN080 81 72 74% 85 30 1015.4
19 16:53 NE 3 10.00 Overcast OVC030 81 72 74% 85 30.01 1015.8
19 15:53 N 6 10.00 Overcast BKN022 OVC027 82 72 72% 87 30.01 1015.9
19 14:53 Calm 10.00 Mostly Cloudy BKN019 82 72 72% 87 30.02 1016.2
19 13:53 Calm 10.00 Mostly Cloudy SCT012 BKN019 BKN026 79 72 79% 82 30.05 1017.0
19 12:53 Calm 10.00 Light Rain OVC012 77 70 77 71.1 79% 79 30.06 1017.6
19 11:53 Calm 10.00 Overcast OVC014 75.9 70 82% 77 30.07 1017.8
19 10:53 Vrbl 7 10.00 Overcast OVC007 73.9 70 88% 30.07 1017.8
19 09:53 N 8 10.00 Overcast OVC007 73 69.1 87% 30.06 1017.5
19 08:53 NE 7 10.00 Overcast OVC010 72 69.1 91% 30.07 1017.6
19 07:53 NE 6 10.00 Overcast FEW006 OVC015 71.1 68 90% 30.06 1017.3
19 06:53 NE 6 10.00 Overcast FEW023 BKN060 OVC110 72 69.1 77 72 91% 30.04 1016.9 0.02 0.04
19 05:53 NE 3 10.00 Overcast SCT024 BKN029 OVC045 73 68 84% 30.04 1016.8 0.02
19 04:53 N 6 10.00 Overcast OVC065 73.9 68 82% 30.02 1016.2
19 03:53 N 8 10.00 Overcast OVC100 73.9 68 82% 30.02 1016.0
19 02:53 N 6 10.00 Mostly Cloudy BKN100 75 68 79% 76 30.02 1016.1
19 01:53 N 6 10.00 Partly Cloudy SCT055 SCT095 75.9 69.1 79% 77 30.02 1016.2
19 00:53 N 9 10.00 Overcast SCT055 OVC090 77 68 82.9 77 74% 79 30.03 1016.4
18 23:53 N 9 10.00 Overcast OVC080 78.1 69.1 74% 80 30.03 1016.3
18 22:53 N 8 10.00 Mostly Cloudy SCT075 BKN120 78.1 71.1 79% 80 30.02 1016.1
18 21:53 NE 9 10.00 Mostly Cloudy SCT070 BKN100 79 71.1 77% 82 30.03 1016.3
18 20:53 N 8 10.00 Overcast FEW041 BKN049 OVC100 80.1 73 79% 84 30.02 1016.0
18 18:53 NE 6 10.00 A Few Clouds FEW045 82.9 72 89.1 82.9 70% 88 29.99 1015.0
18 17:53 N 6 10.00 Partly Cloudy SCT035 87.1 72 61% 94 29.98 1014.6
18 16:53 Vrbl 5 10.00 Fair CLR 88 73 61% 96 29.98 1014.8
18 15:53 NW 5 10.00 Fair CLR 86 73 65% 93 30 1015.4
18 14:53 N 5 10.00 A Few Clouds FEW031 86 71.1 61% 92 30.01 1015.8
18 13:53 N 9 10.00 Fair CLR 86 73 65% 93 30.04 1016.6
18 11:53 Calm 10.00 Mostly Cloudy BKN019 BKN026 84.9 73 68% 92 30.06 1017.5
18 10:53 NW 5 10.00 Overcast BKN015 OVC021 81 73 77% 86 30.06 1017.5
18 09:53 Vrbl 3 10.00 Mostly Cloudy SCT010 SCT014 BKN020 80.1 73 79% 84 30.06 1017.4
18 08:53 W 5 10.00 Overcast OVC017 77 73 88% 78 30.06 1017.5
18 07:53 W 6 10.00 Mostly Cloudy BKN009 75 72 90% 74 30.04 1016.9
18 06:53 S 6 10.00 Fair CLR 73 71.1 79 73 94% 30.01 1015.8 0.44
18 05:53 Calm 10.00 Fair CLR 73.9 72 94% 29.98 1014.7
18 04:53 Calm 10.00 Fair CLR 73.9 72 94% 29.97 1014.5 0.01
18 03:53 N 5 10.00 Fair CLR 73.9 70 88% 29.98 1014.7 0.05 0.43
18 02:53 W 8 G 21 6.00 Rain Fog/Mist FEW011 BKN090 OVC110 73.9 72 94% 30.01 1015.8 0.14
18 01:53 W 16 G 28 3.00 Thunderstorm in Vicinity Rain Fog/Mist FEW038 BKN055 OVC075 73 71.1 94% 30.02 1016.2 0.24
18 00:53 SW 6 10.00 Fair CLR 78.1 73 91 78.1 85% 81 30.01 1015.5
17 23:53 NE 5 10.00 Fair CLR 79 73 82% 82 29.99 1015.1
17 22:53 N 5 10.00 Partly Cloudy SCT050 81 72 74% 85 30 1015.2
17 21:53 N 7 10.00 A Few Clouds FEW060 84 73.9 72% 91 29.97 1014.4
Date Time (cdt) Wind (mph) Vis. (mi.) Weather Sky Cond. Air Dwpt Max. Min. Relative Humidity Wind Chill (°F) Heat Index (°F) altimeter (in) sea level (mb) 1 hr 3 hr 6 hr
6 hour
Temperature (ºF) Pressure Precipitation (in)